This demonstration page uses our WeatherBlox Daily Observations layout. Learn more.

Left ArrowRight Arrow

Hourly Observations for October 18, 2019

Temp ( °F °C ) Dew Point ( °F °C ) Humidity (%) Winds ( mph kmh ) Pressure ( in mb ) Visibility ( mi km ) Precip ( " mm )
12:53 am 00:53 Clear 47 8.3 42 5.6 83 83 Calm 29.97 1015 10 16 0.00 0.00
1:53 am 01:53 Clear 47 8.3 41 5 80 80 Calm 29.97 1015 10 16 0.00 0.00
2:53 am 02:53 Clear 45 7.2 43 6.1 93 93 Calm 29.97 1015 10 16 0.00 0.00
3:53 am 03:53 Clear 46 7.8 39 3.9 77 77 Calm 29.96 1015 10 16 0.00 0.00
4:53 am 04:53 Clear 43 6.1 40 4.4 89 89 Calm 29.97 1015 10 16 0.00 0.00
5:53 am 05:53 Clear 42 5.6 40 4.4 92 92 Calm 29.98 1015 10 16 0.00 0.00
6:53 am 06:53 Clear 41 5 39 3.9 93 93 Calm 29.99 1016 10 16 0.00 0.00
7:53 am 07:53 Sunny 41 5 39 3.9 93 93 NNE 3 6 29.99 1016 10 16 0.00 0.00
8:53 am 08:53 Sunny 45 7.2 42 5.6 90 90 NNE 3 6 30.02 1017 10 16 0.00 0.00
9:53 am 09:53 Sunny 51 10.6 44 6.7 77 77 NNE 3 6 30.05 1018 10 16 0.00 0.00
10:53 am 10:53 Sunny 58 14.4 39 3.9 50 50 ENE 7 11 30.04 1017 10 16 0.00 0.00
11:53 am 11:53 Sunny 61 16.1 39 3.9 44 44 E 10 17 30.03 1017 10 16 0.00 0.00
12:53 pm 12:53 Sunny 64 17.8 40 4.4 41 41 VRB 6 9 30.03 1017 10 16 0.00 0.00
1:53 pm 13:53 Sunny 65 18.3 41 5 42 42 E 7 11 30.00 1016 10 16 0.00 0.00
2:53 pm 14:53 Sunny 66 18.9 41 5 40 40 ENE 5 7 29.97 1015 10 16 0.00 0.00
3:53 pm 15:53 Sunny 67 19.4 42 5.6 41 41 ENE 6 9 29.97 1015 10 16 0.00 0.00
4:53 pm 16:53 Sunny 67 19.4 41 5 39 39 ESE 5 7 29.96 1015 10 16 0.00 0.00
5:53 pm 17:53 Sunny 66 18.9 43 6.1 43 43 SE 6 9 29.98 1015 10 16 0.00 0.00
6:53 pm 18:53 Sunny 64 17.8 45 7.2 50 50 E 3 6 29.95 1014 10 16 0.00 0.00
8:53 pm 20:53 Clear 56 13.3 48 8.9 75 75 NE 3 6 29.94 1014 10 16 0.00 0.00
9:53 pm 21:53 Clear 57 13.9 47 8.3 69 69 Calm 29.96 1014 10 16 0.00 0.00
10:53 pm 22:53 Clear 55 12.8 47 8.3 74 74 Calm 29.96 1015 10 16 0.00 0.00
11:53 pm 23:53 Clear 56 13.3 47 8.3 72 72 Calm 29.96 1015 10 16 0.00 0.00

Powered by AerisWeather